SCOUT A DEB, 3591

Orbit data source: Space-Track

SCOUT A DEB, 3591 is space debris in LEO originally from a launch on Thu, 19 May 1966 UTC launched from the Air Force Western Test Range (AFWTR). Debris objects in space refer to the collection of defunct objects orbiting the Earth. Examples of debris include non-operational satellites, rocket bodies, and fragments generated from explosions, collisions, or faulty payload assembly.

Loading next visibility...
Identifier
3591, 1966-041E
Orbit
LEO
Country
Flag of USUS
Related business
Manufacturer
Unknown
Mission
Spacecraft
Bus & Motor
Unknown
Mass
Unknown
Launch date (UTC)
1966-05-19 (59 years ago)
Launch vehicle
Unknown
Launch site
Air Force Western Test Range (AFWTR)
Object type
Payload
Rocket body
Debris
Shape & HBR
Unknown shape, 0.2 m
Radar Cross Section
Small (<0.1 m²)

Expand to show TLE details & history
Last TLE update: 10 hours ago

TLE from 10 hours ago
0 SCOUT A DEB
1 03591U 66041E   25302.89028758  .00000512  00000-0  30638-3 0  9995
2 03591  90.2165  76.9958 0089494 140.9831 219.7853 14.03945737 35070
Epoch: 2025-10-29T21:22Z
TLE epoch observation values (Epoch: 2025-10-29T21:22:00.846Z)
Latitude
-0.00001°
Longitude
78.03534°
Altitude
933.359 km
Speed
7.36 km/s
True Right ascension
05h 07m 58s
True Declination
0° 00' 00"
Sunlit
Object was in full shadow at epoch
Visualization orbit readout
Latitude
Unknown
Longitude
Unknown
Altitude
Unknown
Speed
Unknown
Apparent Right ascension
Unknown
Apparent Declination
Unknown
Sunlit
N/A
Visualization observer readout
Local Sidereal Time
03:21:38
Azimuth
Unknown
Elevation
Unknown
Doppler factor
Unknown
Orbital elements
Apogee altitude
942.065 km
Perigee altitude
812.205 km
Semi-major axis
7,255.272 km
Eccentricity
0.00895
Inclination
90.2165°
RAAN
76.9958°
Arg. of periapsis
140.9831°
True anomaly
219.13466°
Mean anomaly
219.7853°
Eccentric anomaly
219.45942°
Mean motion
3.51207 °/min
Orbital period
102.5 mins
BSTAR
0.00030638
Loading maneuver chart data...
Computing Atmospheric mass density...
Loading historical data...
Loading historical data...
Loading historical data...
Loading historical data...
Loading historical data...
Loading historical data...
Loading historical data...

Documentation

Showing up to 5 results
|